Location: Passau
(48.5830°N, 13.4830°E)
Time: 06:12:37
(UTC+02:00)

Vanguard 1 - Pass Details

Date: 03 August 2021
Orbit: 652 x 3831 km, 34.3° (Epoch: 16 September)

Event Time Altitude Azimuth Distance (km) Brightness Sun altitude
Rises 13:33:53 0° 245° (WSW) 3,246 13.0 58.5°
Reaches altitude 10° 13:36:23 10° 231° (SW) 2,525 12.7 58.4°
Maximum altitude 13:41:07 25° 177° (S) 2,123 12.8 58.2°
Drops below altitude 10° 13:48:04 10° 128° (SE) 3,838 13.4 57.9°
Sets 13:52:57 0° 117° (ESE) 5,418 13.9 57.7°
